Location: Gorze? G�rny
(49.8500°N, 19.5000°E)
Time: 04:06:30
(UTC+00:00)

SL-24 DEB - Pass Details

Date: 13 May 2021
Orbit: 667 x 698 km, 92.0° (Epoch: 23 June)

Event Time Altitude Azimuth Distance (km) Brightness Sun altitude
Exits shadow 20:40:51 27° 179° (S) 1,279 5.2 -16.8°
Maximum altitude 20:43:22 83° 265° (W) 681 4.2 -17.0°
Drops below altitude 10° 20:48:01 10° 354° (N) 2,112 7.9 -17.3°
Sets 20:50:17 0° 355° (N) 3,034 8.9 -17.5°
